Location: Newark
(47.5833°N, 8.1500°E)
Time: 06:33:56
(UTC+00:00)

Tiros 1 despin weight - Pass Details

Date: 01 November 2020
Orbit: 593 x 642 km, 48.2° (Epoch: 30 November)

Event Time Altitude Azimuth Distance (km) Brightness Sun altitude
Exits shadow 04:42:24 19° 233° (SW) 1,434 ? -15.5°
Maximum altitude 04:43:10 20° 219° (SW) 1,398 ? -15.4°
Drops below altitude 10° 04:46:20 10° 173° (S) 1,916 ? -14.8°
Sets 04:49:06 0° 156° (SSE) 2,815 ? -14.4°
